Location: Capannuccia
(43.7000°N, 11.3000°E)
Time: 03:11:29
(UTC+00:00)

STARLINK-65 - Pass Details

Date: 07 June 2020
Orbit: 435 x 438 km, 53.0° (Epoch: 11 July)

Event Time Altitude Azimuth Distance (km) Brightness Sun altitude
Exits shadow 02:30:03 13° 242° (WSW) 1,333 5.0 -9.7°
Maximum altitude 02:33:00 73° 327° (NNW) 452 3.2 -9.3°
Drops below altitude 10° 02:36:25 10° 52° (NE) 1,524 7.6 -8.9°
Sets 02:38:32 0° 55° (NE) 2,390 9.1 -8.6°
